STARLINK-11616, 63137

Orbit data source: Space-Track

STARLINK-11616, 63137 is a payload satellite owned by SpaceX/Seattle (US) in LEO that was launched on Mon, 03 Mar 2025 UTC via an FALCON 9 launch vehicle from the Air Force Eastern Test Range (AFETR). Payload-class satellites include a variety of spacecraft equipped with specific instruments for various scientific and technological missions. These include communications satellites like Starlink; space stations such as the ISS; scientific satellites like the Hubble; Earth observation satellites from companies like Planet Labs, Umbra, and HawkEye 360; GPS; miniature CubeSats for education and research; and military/defense satellites.

Loading next visibility...
Identifier
63137, 2025-043F
Orbit
LEO
Country
Flag of USUS
Related business
Manufacturer
SpaceX/Seattle
Mission
Operational Commercial Communications
Bus & Motor
STARLINK V2MD, Unknown motor
Mass
960 kg wet, ~910 kg dry
Launch date (UTC)
2025-03-03 (2 years ago)
Launch vehicle
FALCON 9
Launch site
Air Force Eastern Test Range (AFETR)
Object type
Payload
Rocket body
Debris
Shape & HBR
Box + 2 Pan, 18.1 m
Radar Cross Section
36.964 m², Large (>1 m²)

Expand to show TLE details & history
Last TLE update: 13 hours ago

TLE from 13 hours ago
0 STARLINK-11616
1 63137U 25043F   26255.86496263  .00127965  00000-0  98086-3 0  9992
2 63137  42.9990 202.1501 0001715 236.3530 123.7174 15.70951637 88917
Epoch: 2026-09-12T20:45Z
TLE epoch observation values (Epoch: 2026-09-12T20:45:32.771Z)
Latitude
-0.00002°
Longitude
-101.10431°
Altitude
356.588 km
Speed
7.697 km/s
True Right ascension
13h 28m 36s
True Declination
0° 00' 00"
Sunlit
Object was in daylight at epoch
Visualization orbit readout
Latitude
Unknown
Longitude
Unknown
Altitude
Unknown
Speed
Unknown
Apparent Right ascension
Unknown
Apparent Declination
Unknown
Sunlit
N/A
Visualization observer readout
Local Sidereal Time
02:09:10
Azimuth
Unknown
Elevation
Unknown
Doppler factor
Unknown
Orbital elements
Apogee altitude
359.313 km
Perigee altitude
357.003 km
Semi-major axis
6,736.295 km
Eccentricity
0.00017
Inclination
42.999°
RAAN
202.1501°
Arg. of periapsis
236.353°
True anomaly
123.73374°
Mean anomaly
123.7174°
Eccentric anomaly
123.72557°
Mean motion
3.92565 °/min
Orbital period
91.7 mins
BSTAR
0.00098086
Loading maneuver chart data...
Computing Atmospheric mass density...
Loading historical data...
Loading historical data...
Loading historical data...
Loading historical data...
Loading historical data...
Loading historical data...
Loading historical data...

Documentation

Showing up to 5 results
|